QPF
0.00 0.00 0.00 0.00 0.00 0.00 0.00 0.00 0.00 0.00 0.01 0.00 0.00 0.00 0.01 0.01 0.01 0.01 0.01 0.01 0.01 0.01 0.01 0.02 0.02 0.01 0.00 0.00 0.01 0.00 0.00 0.00 0.01 0.01 0.00 0.00 0.00 0.00 0.00 0.00 0.00 0.00 0.00
0.00 0.00 0.00 0.00 0.00 0.00 0.00 0.00 0.00 0.01 0.01 0.00 0.00 0.00 0.01 0.01 0.01 0.01 0.01 0.02 0.01 0.01 0.02 0.02 0.01 0.01 0.00 0.00 0.00 0.00 0.00 0.00 0.00 0.00 0.00 0.00 0.00 0.00 0.00 0.00 0.00 0.00 0.00
0.00 0.00 0.00 0.00 0.00 0.00 0.00 0.00 0.00 0.00 0.01 0.01 0.01 0.01 0.01 0.00 0.00 0.01 0.02 0.02 0.01 0.02 0.02 0.01 0.01 0.00 0.00 0.00 0.00 0.00 0.00 0.00 0.00 0.00 0.00 0.00 0.00 0.01 0.00 0.00 0.00 0.01 0.01
0.00 0.00 0.00 0.00 0.00 0.00 0.00 0.00 0.00 0.00 0.00 0.00 0.01 0.00 0.00 0.00 0.00 0.01 0.02 0.02 0.02 0.03 0.02 0.01 0.00 0.00 0.00 0.00 0.00 0.00 0.00 0.00 0.00 0.00 0.00 0.00 0.00 0.00 0.00 0.00 0.00 0.00 0.00
0.00 0.00 0.00 0.00 0.00 0.00 0.00 0.00 0.00 0.00 0.00 0.00 0.00 0.00 0.00 0.00 0.00 0.01 0.01 0.02 0.02 0.02 0.01 0.00 0.00 0.00 0.00 0.00 0.00 0.00 0.00 0.00 0.00 0.00 0.00 0.00 0.00 0.00 0.00 0.00 0.01 0.01 0.00
0.01 0.00 0.00 0.00 0.00 0.00 0.00 0.00 0.00 0.00 0.00 0.00 0.00 0.00 0.00 0.00 0.00 0.00 0.01 0.01 0.01 0.00 0.00 0.00 0.00 0.00 0.00 0.00 0.00 0.00 0.00 0.00 0.00 0.00 0.00 0.00 0.00 0.00 0.00 0.01 0.01 0.01 0.00
0.01 0.00 0.00 0.00 0.00 0.00 0.00 0.00 0.00 0.00 0.00 0.00 0.00 0.00 0.00 0.00 0.00 0.00 0.00 0.00 0.00 0.00 0.00 0.00 0.00 0.00 0.00 0.00 0.00 0.00 0.00 0.00 0.00 0.00 0.00 0.00 0.00 0.00 0.01 0.01 0.01 0.01 0.00
0.02 0.01 0.00 0.00 0.00 0.00 0.00 0.00 0.00 0.00 0.00 0.00 0.00 0.00 0.00 0.00 0.00 0.00 0.00 0.00 0.00 0.00 0.00 0.00 0.00 0.00 0.00 0.00 0.00 0.00 0.00 0.00 0.00 0.00 0.00 0.00 0.00 0.00 0.01 0.01 0.01 0.01 0.00
0.02 0.02 0.02 0.01 0.01 0.01 0.01 0.00 0.00 0.01 0.00 0.00 0.00 0.01 0.01 0.01 0.00 0.00 0.00 0.00 0.00 0.00 0.00 0.00 0.00 0.00 0.00 0.00 0.00 0.00 0.00 0.00 0.00 0.00 0.00 0.00 0.00 0.00 0.01 0.01 0.01 0.01 0.00
0.01 0.02 0.03 0.03 0.02 0.02 0.02 0.02 0.02 0.02 0.01 0.01 0.01 0.01 0.01 0.01 0.00 0.00 0.00 0.00 0.00 0.00 0.00 0.00 0.00 0.00 0.00 0.00 0.00 0.00 0.00 0.00 0.00 0.00 0.00 0.00 0.00 0.00 0.00 0.01 0.01 0.01 0.01
0.02 0.02 0.02 0.02 0.02 0.02 0.01 0.02 0.02 0.01 0.01 0.01 0.01 0.01 0.01 0.00 0.00 0.00 0.00 0.00 0.00 0.00 0.00 0.00 0.00 0.00 0.00 0.00 0.00 0.00 0.00 0.00 0.00 0.00 0.00 0.00 0.00 0.00 0.00 0.00 0.00 0.01 0.02
0.02 0.03 0.02 0.02 0.02 0.01 0.01 0.01 0.01 0.01 0.00 0.00 0.00 0.00 0.00 0.00 0.00 0.00 0.00 0.00 0.00 0.00 0.00 0.00 0.00 0.00 0.00 0.00 0.00 0.00 0.00 0.00 0.00 0.00 0.00 0.00 0.00 0.00 0.00 0.00 0.00 0.00 0.01
0.01 0.02 0.02 0.02 0.02 0.02 0.01 0.00 0.00 0.00 0.00 0.00 0.00 0.00 0.00 0.00 0.00 0.00 0.00 0.00 0.00 0.00 0.00 0.00 0.00 0.00 0.00 0.00 0.00 0.00 0.00 0.00 0.00 0.00 0.00 0.00 0.00 0.00 0.00 0.00 0.00 0.00 0.00
0.01 0.01 0.02 0.02 0.03 0.02 0.01 0.00 0.00 0.00 0.00 0.00 0.00 0.00 0.00 0.00 0.00 0.00 0.00 0.00 0.00 0.00 0.00 0.00 0.00 0.00 0.00 0.00 0.00 0.00 0.00 0.00 0.00 0.00 0.00 0.00 0.00 0.00 0.00 0.00 0.00 0.00 0.00
0.01 0.01 0.02 0.02 0.02 0.02 0.01 0.01 0.01 0.01 0.01 0.01 0.01 0.01 0.00 0.01 0.01 0.01 0.01 0.01 0.00 0.00 0.00 0.00 0.00 0.00 0.00 0.00 0.00 0.00 0.00 0.00 0.00 0.00 0.00 0.00 0.00 0.00 0.00 0.00 0.00 0.00 0.00
0.01 0.01 0.01 0.02 0.02 0.02 0.01 0.02 0.02 0.01 0.01 0.01 0.02 0.02 0.01 0.01 0.01 0.01 0.01 0.01 0.01 0.00 0.00 0.00 0.00 0.00 0.00 0.00 0.00 0.00 0.00 0.00 0.00 0.00 0.00 0.00 0.00 0.00 0.00 0.00 0.00 0.00 0.00
0.02 0.02 0.02 0.02 0.02 0.02 0.03 0.03 0.03 0.03 0.03 0.02 0.02 0.01 0.01 0.00 0.00 0.00 0.00 0.00 0.00 0.00 0.00 0.00 0.00 0.00 0.00 0.00 0.00 0.00 0.00 0.00 0.00 0.00 0.00 0.00 0.00 0.00 0.00 0.00 0.00 0.00 0.00
0.04 0.04 0.04 0.03 0.03 0.03 0.03 0.03 0.03 0.03 0.03 0.02 0.01 0.01 0.01 0.01 0.01 0.00 0.00 0.00 0.00 0.00 0.00 0.00 0.00 0.00 0.00 0.00 0.00 0.00 0.00 0.00 0.00 0.00 0.00 0.00 0.00 0.00 0.00 0.00 0.00 0.00 0.00
0.05 0.05 0.05 0.04 0.04 0.03 0.03 0.03 0.02 0.02 0.02 0.02 0.01 0.01 0.01 0.01 0.01 0.00 0.00 0.00 0.00 0.00 0.00 0.00 0.00 0.00 0.00 0.00 0.00 0.00 0.00 0.00 0.00 0.00 0.00 0.00 0.00 0.00 0.00 0.00 0.00 0.00 0.00
0.03 0.03 0.03 0.03 0.03 0.02 0.02 0.02 0.02 0.01 0.01 0.01 0.01 0.00 0.00 0.00 0.00 0.00 0.00 0.00 0.00 0.00 0.00 0.00 0.01 0.01 0.00 0.00 0.00 0.00 0.00 0.00 0.00 0.00 0.00 0.00 0.00 0.00 0.00 0.00 0.00 0.00 0.00
0.01 0.02 0.02 0.01 0.01 0.01 0.01 0.01 0.01 0.00 0.00 0.00 0.00 0.01 0.01 0.00 0.01 0.01 0.01 0.01 0.01 0.01 0.01 0.01 0.01 0.00 0.00 0.00 0.00 0.00 0.00 0.00 0.00 0.00 0.00 0.00 0.00 0.00 0.00 0.00 0.00 0.00 0.00
0.00 0.01 0.00 0.00 0.00 0.00 0.01 0.01 0.01 0.01 0.01 0.00 0.01 0.01 0.01 0.01 0.01 0.01 0.01 0.01 0.00 0.00 0.00 0.00 0.00 0.00 0.00 0.00 0.00 0.00 0.00 0.00 0.00 0.00 0.00 0.00 0.00 0.00 0.00 0.00 0.00 0.00 0.00
0.01 0.01 0.00 0.00 0.00 0.00 0.01 0.01 0.01 0.00 0.00 0.00 0.00 0.00 0.00 0.00 0.00 0.00 0.00 0.00 0.00 0.00 0.00 0.00 0.00 0.00 0.00 0.00 0.00 0.00 0.00 0.00 0.00 0.00 0.00 0.00 0.00 0.00 0.00 0.00 0.00 0.00 0.01
0.01 0.01 0.00 0.00 0.00 0.00 0.00 0.01 0.01 0.00 0.00 0.00 0.00 0.00 0.00 0.00 0.00 0.00 0.00 0.00 0.00 0.00 0.00 0.00 0.00 0.00 0.00 0.00 0.00 0.00 0.00 0.00 0.00 0.00 0.00 0.00 0.00 0.00 0.00 0.00 0.00 0.00 0.01
0.01 0.01 0.01 0.01 0.00 0.00 0.01 0.00 0.00 0.00 0.00 0.00 0.00 0.00 0.00 0.00 0.00 0.00 0.00 0.00 0.00 0.00 0.00 0.00 0.00 0.00 0.00 0.00 0.00 0.00 0.00 0.00 0.00 0.00 0.00 0.00 0.00 0.00 0.00 0.00 0.00 0.00 0.01
0.01 0.01 0.01 0.01 0.01 0.00 0.00 0.00 0.01 0.01 0.00 0.00 0.00 0.00 0.00 0.00 0.00 0.00 0.00 0.00 0.00 0.00 0.00 0.00 0.00 0.00 0.00 0.00 0.00 0.00 0.00 0.00 0.00 0.00 0.00 0.00 0.00 0.00 0.00 0.00 0.00 0.01 0.01
MSLP
1018.77 1019.00 1019.24 1019.47 1019.64 1019.74 1019.76 1019.73 1019.67 1019.62 1019.59 1019.63 1019.72 1019.86 1020.04 1020.23 1020.39 1020.52 1020.61 1020.65 1020.65 1020.64 1020.64 1020.68 1020.76 1020.90 1021.11 1021.36 1021.65 1021.97 1022.27 1022.54 1022.75 1022.90 1022.96 1022.95 1022.86 1022.72 1022.55 1022.36 1022.20 1022.07 1022.00
1018.91 1019.14 1019.38 1019.61 1019.79 1019.91 1019.96 1019.96 1019.94 1019.91 1019.91 1019.96 1020.06 1020.22 1020.41 1020.63 1020.84 1021.02 1021.16 1021.26 1021.31 1021.33 1021.34 1021.36 1021.40 1021.49 1021.63 1021.83 1022.09 1022.38 1022.69 1023.00 1023.28 1023.50 1023.64 1023.69 1023.65 1023.54 1023.38 1023.19 1023.00 1022.84 1022.73
1019.01 1019.26 1019.51 1019.75 1019.94 1020.08 1020.17 1020.21 1020.22 1020.23 1020.26 1020.32 1020.44 1020.60 1020.81 1021.04 1021.28 1021.51 1021.70 1021.85 1021.96 1022.03 1022.07 1022.09 1022.12 1022.18 1022.28 1022.44 1022.66 1022.94 1023.25 1023.58 1023.90 1024.18 1024.39 1024.50 1024.53 1024.46 1024.31 1024.13 1023.92 1023.74 1023.59
1019.06 1019.34 1019.61 1019.86 1020.08 1020.25 1020.38 1020.46 1020.52 1020.57 1020.64 1020.73 1020.85 1021.02 1021.23 1021.46 1021.71 1021.96 1022.19 1022.39 1022.56 1022.68 1022.76 1022.81 1022.85 1022.91 1022.99 1023.12 1023.31 1023.56 1023.86 1024.20 1024.55 1024.86 1025.12 1025.30 1025.38 1025.36 1025.25 1025.08 1024.89 1024.69 1024.52
1019.04 1019.36 1019.66 1019.94 1020.19 1020.40 1020.57 1020.71 1020.83 1020.94 1021.04 1021.16 1021.30 1021.47 1021.66 1021.88 1022.12 1022.37 1022.62 1022.85 1023.05 1023.22 1023.35 1023.45 1023.52 1023.59 1023.67 1023.79 1023.95 1024.18 1024.46 1024.79 1025.13 1025.47 1025.76 1025.98 1026.12 1026.15 1026.09 1025.97 1025.80 1025.61 1025.44
1018.93 1019.30 1019.65 1019.97 1020.25 1020.51 1020.74 1020.95 1021.13 1021.30 1021.46 1021.61 1021.76 1021.92 1022.10 1022.29 1022.50 1022.73 1022.97 1023.21 1023.44 1023.65 1023.83 1023.97 1024.09 1024.18 1024.27 1024.39 1024.53 1024.73 1024.99 1025.29 1025.62 1025.95 1026.26 1026.51 1026.69 1026.78 1026.78 1026.71 1026.58 1026.43 1026.28
1018.73 1019.17 1019.57 1019.93 1020.26 1020.58 1020.87 1021.14 1021.40 1021.64 1021.85 1022.05 1022.22 1022.37 1022.52 1022.68 1022.85 1023.05 1023.26 1023.50 1023.74 1023.97 1024.19 1024.38 1024.54 1024.67 1024.78 1024.90 1025.04 1025.21 1025.43 1025.70 1026.00 1026.32 1026.63 1026.90 1027.11 1027.24 1027.30 1027.29 1027.22 1027.11 1026.99
1018.44 1018.94 1019.40 1019.81 1020.20 1020.57 1020.93 1021.28 1021.61 1021.92 1022.20 1022.44 1022.63 1022.79 1022.92 1023.05 1023.18 1023.33 1023.52 1023.73 1023.97 1024.22 1024.47 1024.70 1024.90 1025.07 1025.21 1025.35 1025.48 1025.64 1025.83 1026.06 1026.33 1026.62 1026.92 1027.19 1027.42 1027.60 1027.70 1027.74 1027.72 1027.67 1027.59
1018.06 1018.63 1019.14 1019.61 1020.04 1020.47 1020.90 1021.32 1021.73 1022.12 1022.46 1022.75 1022.98 1023.15 1023.28 1023.38 1023.48 1023.60 1023.76 1023.95 1024.19 1024.45 1024.72 1024.99 1025.23 1025.45 1025.62 1025.78 1025.92 1026.07 1026.24 1026.45 1026.68 1026.95 1027.22 1027.49 1027.72 1027.91 1028.05 1028.13 1028.15 1028.13 1028.08
1017.60 1018.22 1018.78 1019.30 1019.79 1020.28 1020.78 1021.27 1021.76 1022.21 1022.62 1022.97 1023.24 1023.44 1023.57 1023.67 1023.76 1023.86 1024.00 1024.19 1024.43 1024.70 1025.00 1025.30 1025.59 1025.84 1026.06 1026.25 1026.41 1026.56 1026.72 1026.91 1027.12 1027.35 1027.60 1027.85 1028.08 1028.27 1028.42 1028.51 1028.56 1028.56 1028.52
1017.05 1017.72 1018.33 1018.90 1019.45 1020.00 1020.56 1021.12 1021.67 1022.20 1022.67 1023.07 1023.39 1023.63 1023.79 1023.91 1024.01 1024.12 1024.27 1024.46 1024.71 1025.01 1025.34 1025.68 1026.00 1026.30 1026.56 1026.78 1026.96 1027.13 1027.30 1027.47 1027.67 1027.88 1028.10 1028.33 1028.53 1028.71 1028.85 1028.94 1028.98 1028.98 1028.94
1016.44 1017.15 1017.80 1018.42 1019.03 1019.64 1020.26 1020.89 1021.50 1022.08 1022.61 1023.07 1023.43 1023.72 1023.92 1024.08 1024.22 1024.36 1024.53 1024.76 1025.04 1025.37 1025.73 1026.11 1026.47 1026.81 1027.11 1027.36 1027.58 1027.77 1027.95 1028.13 1028.31 1028.51 1028.71 1028.90 1029.08 1029.23 1029.34 1029.40 1029.43 1029.41 1029.35
1015.79 1016.53 1017.23 1017.90 1018.57 1019.24 1019.92 1020.60 1021.27 1021.90 1022.47 1022.97 1023.39 1023.71 1023.97 1024.18 1024.37 1024.57 1024.79 1025.06 1025.38 1025.75 1026.15 1026.57 1026.97 1027.34 1027.68 1027.97 1028.21 1028.43 1028.62 1028.81 1028.99 1029.17 1029.35 1029.52 1029.66 1029.78 1029.86 1029.89 1029.88 1029.84 1029.77
1015.14 1015.91 1016.66 1017.39 1018.12 1018.86 1019.59 1020.32 1021.02 1021.68 1022.29 1022.81 1023.26 1023.63 1023.94 1024.21 1024.46 1024.72 1025.00 1025.33 1025.71 1026.12 1026.56 1027.00 1027.44 1027.84 1028.20 1028.52 1028.79 1029.03 1029.24 1029.43 1029.61 1029.78 1029.95 1030.09 1030.21 1030.30 1030.35 1030.36 1030.32 1030.26 1030.17
1014.54 1015.34 1016.14 1016.94 1017.74 1018.53 1019.30 1020.07 1020.79 1021.47 1022.08 1022.62 1023.09 1023.50 1023.85 1024.17 1024.48 1024.80 1025.15 1025.54 1025.96 1026.42 1026.89 1027.37 1027.82 1028.25 1028.63 1028.96 1029.25 1029.50 1029.72 1029.92 1030.11 1030.28 1030.43 1030.57 1030.67 1030.74 1030.77 1030.76 1030.72 1030.64 1030.55
1014.04 1014.88 1015.74 1016.59 1017.44 1018.28 1019.10 1019.88 1020.61 1021.28 1021.89 1022.43 1022.90 1023.32 1023.70 1024.06 1024.42 1024.80 1025.21 1025.65 1026.12 1026.62 1027.12 1027.61 1028.08 1028.51 1028.90 1029.24 1029.54 1029.80 1030.03 1030.24 1030.43 1030.61 1030.76 1030.89 1030.99 1031.05 1031.08 1031.08 1031.04 1030.98 1030.91
1013.66 1014.54 1015.45 1016.36 1017.26 1018.13 1018.97 1019.75 1020.48 1021.13 1021.72 1022.24 1022.70 1023.12 1023.51 1023.91 1024.31 1024.73 1025.19 1025.67 1026.18 1026.71 1027.22 1027.73 1028.20 1028.63 1029.02 1029.36 1029.67 1029.94 1030.17 1030.39 1030.59 1030.77 1030.93 1031.07 1031.17 1031.25 1031.30 1031.31 1031.30 1031.27 1031.23
1013.40 1014.32 1015.26 1016.21 1017.15 1018.05 1018.89 1019.67 1020.37 1021.00 1021.55 1022.05 1022.49 1022.90 1023.31 1023.72 1024.15 1024.61 1025.10 1025.61 1026.15 1026.69 1027.22 1027.72 1028.20 1028.62 1029.01 1029.35 1029.66 1029.93 1030.18 1030.41 1030.62 1030.81 1030.98 1031.13 1031.26 1031.36 1031.43 1031.48 1031.51 1031.52 1031.51
1013.23 1014.17 1015.15 1016.12 1017.08 1017.98 1018.82 1019.59 1020.26 1020.86 1021.38 1021.85 1022.27 1022.68 1023.08 1023.51 1023.96 1024.44 1024.95 1025.49 1026.04 1026.59 1027.13 1027.63 1028.10 1028.52 1028.91 1029.25 1029.56 1029.84 1030.10 1030.34 1030.57 1030.78 1030.97 1031.14 1031.29 1031.42 1031.52 1031.60 1031.67 1031.72 1031.75
1013.09 1014.04 1015.03 1016.02 1016.97 1017.88 1018.70 1019.45 1020.10 1020.67 1021.17 1021.61 1022.03 1022.43 1022.84 1023.28 1023.75 1024.25 1024.78 1025.33 1025.89 1026.45 1026.98 1027.48 1027.94 1028.37 1028.75 1029.10 1029.42 1029.71 1029.99 1030.25 1030.49 1030.72 1030.93 1031.12 1031.29 1031.44 1031.57 1031.69 1031.79 1031.87 1031.93
1012.90 1013.86 1014.85 1015.83 1016.77 1017.66 1018.48 1019.20 1019.84 1020.39 1020.88 1021.32 1021.74 1022.15 1022.58 1023.03 1023.52 1024.04 1024.58 1025.15 1025.71 1026.26 1026.80 1027.30 1027.76 1028.19 1028.58 1028.94 1029.27 1029.58 1029.87 1030.15 1030.41 1030.66 1030.88 1031.09 1031.28 1031.44 1031.59 1031.73 1031.84 1031.94 1032.02
1012.63 1013.57 1014.54 1015.50 1016.43 1017.31 1018.10 1018.82 1019.45 1020.01 1020.50 1020.96 1021.40 1021.83 1022.28 1022.76 1023.27 1023.81 1024.36 1024.94 1025.50 1026.06 1026.59 1027.09 1027.56 1027.99 1028.39 1028.77 1029.12 1029.45 1029.76 1030.06 1030.34 1030.60 1030.83 1031.05 1031.24 1031.41 1031.57 1031.70 1031.82 1031.92 1032.00
1012.22 1013.14 1014.08 1015.03 1015.93 1016.79 1017.58 1018.29 1018.93 1019.50 1020.02 1020.51 1020.98 1021.45 1021.93 1022.44 1022.98 1023.54 1024.11 1024.69 1025.26 1025.82 1026.35 1026.86 1027.33 1027.77 1028.19 1028.59 1028.96 1029.31 1029.64 1029.96 1030.25 1030.51 1030.76 1030.97 1031.16 1031.32 1031.47 1031.60 1031.71 1031.80 1031.87
1011.69 1012.58 1013.50 1014.41 1015.30 1016.14 1016.93 1017.65 1018.30 1018.90 1019.45 1019.97 1020.48 1020.99 1021.52 1022.06 1022.63 1023.21 1023.80 1024.39 1024.97 1025.54 1026.08 1026.59 1027.07 1027.53 1027.97 1028.38 1028.77 1029.15 1029.50 1029.82 1030.12 1030.39 1030.63 1030.84 1031.02 1031.17 1031.30 1031.41 1031.50 1031.57 1031.62
1011.08 1011.94 1012.82 1013.71 1014.58 1015.42 1016.20 1016.92 1017.59 1018.21 1018.80 1019.36 1019.91 1020.47 1021.03 1021.61 1022.21 1022.82 1023.43 1024.03 1024.63 1025.20 1025.76 1026.28 1026.79 1027.26 1027.72 1028.15 1028.56 1028.95 1029.32 1029.66 1029.96 1030.23 1030.46 1030.65 1030.81 1030.95 1031.05 1031.14 1031.21 1031.27 1031.30
1010.45 1011.28 1012.14 1013.00 1013.85 1014.67 1015.44 1016.17 1016.85 1017.49 1018.10 1018.70 1019.28 1019.88 1020.48 1021.09 1021.72 1022.36 1022.99 1023.62 1024.24 1024.83 1025.41 1025.96 1026.48 1026.98 1027.46 1027.91 1028.34 1028.75 1029.12 1029.46 1029.76 1030.03 1030.25 1030.43 1030.57 1030.68 1030.77 1030.84 1030.89 1030.92 1030.94
Thickness
5719 5718 5718 5717 5718 5717 5716 5716 5715 5714 5713 5712 5711 5709 5708 5706 5705 5704 5702 5701 5700 5698 5698 5697 5695 5694 5693 5692 5691 5689 5686 5683 5676 5673 5674 5675 5675 5674 5674 5674 5673 5673 5673
5718 5717 5717 5717 5716 5716 5715 5715 5715 5714 5712 5711 5710 5708 5706 5705 5703 5702 5700 5699 5698 5696 5695 5694 5693 5693 5691 5689 5688 5686 5684 5682 5678 5673 5672 5672 5672 5671 5671 5670 5670 5669 5669
5717 5716 5715 5715 5714 5714 5714 5714 5714 5712 5711 5710 5708 5706 5705 5703 5702 5701 5699 5697 5696 5695 5693 5692 5691 5690 5688 5687 5686 5684 5682 5680 5677 5672 5669 5668 5667 5667 5666 5666 5666 5665 5665
5716 5714 5713 5713 5713 5713 5713 5713 5712 5711 5709 5707 5706 5705 5704 5702 5700 5699 5697 5695 5694 5693 5692 5691 5690 5689 5687 5685 5683 5681 5679 5676 5672 5669 5666 5664 5663 5663 5662 5660 5659 5659 5659
5715 5713 5713 5713 5712 5712 5711 5710 5710 5709 5708 5706 5704 5703 5702 5700 5699 5697 5696 5693 5691 5690 5689 5688 5688 5687 5686 5685 5682 5679 5676 5672 5668 5665 5662 5660 5658 5657 5656 5655 5653 5652 5653
5715 5713 5712 5711 5710 5709 5709 5708 5707 5705 5704 5703 5702 5701 5699 5699 5698 5697 5695 5692 5689 5687 5685 5685 5684 5684 5683 5682 5680 5678 5676 5671 5666 5662 5659 5656 5655 5654 5653 5652 5648 5647 5645
5714 5712 5711 5710 5708 5707 5706 5704 5703 5702 5701 5700 5699 5698 5696 5696 5696 5695 5693 5690 5687 5685 5683 5682 5682 5680 5679 5677 5676 5674 5672 5670 5668 5663 5658 5655 5654 5652 5650 5647 5644 5641 5638
5713 5711 5710 5708 5706 5704 5703 5701 5700 5699 5697 5696 5695 5695 5693 5693 5693 5692 5690 5687 5685 5683 5681 5680 5678 5676 5675 5673 5671 5668 5666 5664 5663 5661 5658 5655 5654 5651 5649 5645 5642 5638 5636
5712 5711 5710 5708 5705 5702 5700 5699 5698 5696 5694 5693 5692 5691 5690 5689 5690 5689 5687 5684 5681 5679 5678 5677 5676 5674 5673 5671 5667 5663 5661 5659 5659 5657 5655 5652 5650 5647 5645 5641 5637 5633 5628
5713 5712 5710 5708 5705 5702 5700 5698 5696 5694 5692 5691 5689 5688 5687 5686 5686 5685 5684 5680 5677 5675 5674 5673 5672 5671 5669 5667 5663 5660 5656 5654 5653 5651 5649 5647 5644 5642 5639 5636 5632 5626 5621
5715 5711 5709 5706 5704 5701 5698 5696 5694 5691 5688 5686 5684 5683 5683 5683 5682 5682 5680 5677 5674 5671 5669 5668 5668 5667 5665 5663 5660 5657 5654 5652 5648 5645 5642 5640 5638 5635 5633 5630 5627 5622 5617
5713 5709 5706 5704 5702 5699 5695 5692 5690 5688 5684 5682 5680 5678 5678 5679 5679 5678 5677 5675 5673 5669 5667 5665 5664 5663 5661 5658 5656 5653 5650 5647 5642 5639 5635 5632 5630 5628 5626 5624 5621 5617 5614
5710 5707 5704 5702 5700 5697 5694 5690 5687 5684 5682 5679 5677 5675 5674 5674 5675 5675 5674 5672 5669 5666 5664 5662 5660 5658 5655 5652 5650 5648 5644 5640 5636 5632 5629 5626 5625 5623 5620 5617 5614 5611 5608
5708 5705 5702 5699 5696 5694 5692 5689 5685 5682 5680 5677 5675 5672 5671 5670 5669 5669 5668 5666 5664 5661 5658 5656 5654 5651 5649 5646 5643 5640 5637 5634 5630 5626 5623 5620 5618 5615 5612 5609 5605 5602 5598
5705 5702 5699 5697 5694 5690 5688 5686 5685 5684 5683 5679 5676 5673 5669 5667 5668 5668 5665 5662 5659 5656 5652 5648 5645 5642 5639 5637 5634 5632 5629 5626 5622 5619 5616 5612 5609 5607 5604 5600 5596 5593 5588
5700 5697 5695 5692 5690 5687 5683 5680 5679 5679 5679 5677 5676 5673 5670 5669 5667 5664 5662 5659 5656 5652 5647 5642 5638 5635 5633 5630 5627 5624 5621 5618 5615 5612 5608 5604 5601 5598 5595 5592 5587 5583 5580
5697 5694 5691 5688 5686 5683 5680 5677 5672 5670 5671 5670 5669 5668 5666 5664 5661 5659 5656 5653 5649 5645 5640 5636 5633 5630 5627 5624 5621 5617 5614 5611 5608 5604 5601 5597 5593 5590 5586 5582 5578 5574 5571
5692 5690 5687 5685 5682 5679 5677 5674 5671 5666 5663 5660 5661 5661 5659 5657 5655 5652 5649 5644 5639 5636 5634 5630 5627 5624 5621 5617 5614 5610 5607 5603 5600 5596 5592 5588 5584 5580 5576 5572 5568 5564 5561
5685 5683 5681 5679 5677 5675 5672 5669 5665 5663 5659 5655 5653 5652 5651 5649 5647 5644 5641 5637 5633 5629 5627 5624 5621 5617 5614 5611 5607 5603 5599 5595 5591 5587 5584 5580 5575 5571 5567 5563 5558 5555 5550
5678 5678 5676 5672 5670 5667 5665 5662 5659 5656 5653 5650 5647 5645 5642 5640 5636 5634 5631 5630 5627 5623 5620 5617 5614 5610 5607 5603 5599 5595 5591 5587 5583 5579 5575 5571 5566 5562 5557 5553 5548 5543 5538
5670 5669 5668 5665 5663 5661 5658 5655 5652 5649 5647 5644 5642 5640 5638 5635 5632 5628 5625 5622 5620 5617 5614 5610 5607 5603 5599 5595 5591 5587 5583 5579 5575 5570 5566 5561 5556 5551 5547 5542 5537 5532 5527
5664 5662 5660 5658 5656 5654 5651 5649 5645 5642 5640 5637 5634 5631 5629 5626 5624 5621 5619 5616 5614 5611 5607 5603 5599 5595 5592 5587 5583 5579 5574 5570 5566 5561 5556 5551 5546 5541 5536 5530 5525 5520 5514
5657 5655 5652 5650 5648 5646 5643 5640 5638 5635 5632 5629 5626 5623 5620 5617 5616 5613 5611 5608 5605 5602 5598 5595 5591 5587 5583 5579 5575 5571 5566 5561 5557 5552 5546 5541 5535 5530 5524 5519 5513 5507 5501
5649 5647 5644 5642 5639 5637 5634 5631 5629 5627 5625 5622 5619 5616 5613 5610 5608 5605 5602 5599 5596 5592 5589 5586 5582 5578 5574 5570 5566 5562 5557 5552 5547 5541 5536 5530 5524 5519 5513 5507 5501 5495 5489
5639 5637 5635 5632 5630 5627 5625 5623 5620 5618 5616 5614 5611 5608 5605 5602 5599 5596 5593 5589 5586 5583 5579 5576 5572 5568 5564 5560 5556 5551 5546 5541 5536 5530 5525 5519 5513 5507 5500 5494 5488 5482 5476
5629 5627 5625 5622 5620 5618 5615 5613 5611 5609 5606 5604 5601 5598 5595 5592 5589 5586 5583 5579 5576 5572 5569 5565 5561 5558 5553 5549 5544 5540 5535 5530 5524 5519 5513 5506 5500 5494 5487 5481 5475 5469 5462